St. Cloud, MN

8:43 AM CDT on March 25, 2017 (GMT -0500)
Saint Cloud Regional

Weather History for KSTC - May, 2013

Change the Weather History Date:

Monday, May 20, 2013

  Actual Average Record
Temperature  
Mean Temperature 61 °F 58 °F  
Max Temperature 71 °F 70 °F 92 °F (2009)
Min Temperature 50 °F 46 °F 28 °F (1967)
Degree Days  
Heating Degree Days 4 8  
Month to date heating degree days 235 214  
Since 1 July heating degree days 8689 8381  
Cooling Degree Days 0 1  
Month to date cooling degree days 8 12  
Year to date cooling degree days 8 14  
Growing Degree Days 10 (Base 50)    
Moisture  
Dew Point 55 °F    
Average Humidity 83    
Maximum Humidity 100    
Minimum Humidity 66    
Precipitation  
Precipitation 0.73 in 0.09 in 1.72 in (1960)
Month to date precipitation 3.47 1.87  
Year to date precipitation 10.78 7.23  
Snow  
Snow 0.00 in 0.00 in T in (1968)
Month to date snowfall 0.0 0.0  
Since 1 July snowfall 78.5 45.7  
Snow Depth 0.00 in    
Sea Level Pressure  
Sea Level Pressure 29.54 in    
Wind  
Wind Speed 11 mph (East)    
Max Wind Speed 28 mph    
Max Gust Speed 35 mph    
Visibility 6 miles    
Events Rain    
T = Trace of Precipitation, MM = Missing Value Source: NWS Daily Summary

Daily Weather History Graph

Daily Weather History Graph

Search for Another Location

Airport or City:

Trip Planner

Search our weather history database for the weather conditions in past years. The results will help you decide how hot, cold, wet, or windy it might be!

Date:

Astronomy

May. 20, 2013 Rise Set
Actual Time 5:39 AM CDT 8:46 PM CDT
Civil Twilight 5:04 AM CDT 9:21 PM CDT
Nautical Twilight 4:18 AM CDT 10:07 PM CDT
Astronomical Twilight 3:23 AM CDT 11:03 PM CDT
Moon 3:41 PM CDT (5/20) 2:50 AM CDT (5/20)
Length of Visible Light 16h 17m
Length of Day
15h 06m
Waxing Gibbous, 75% of the Moon is Illuminated
May 20
Waxing Gibbous
May 24
Full
May 31
Last Quarter
Jun 8
New
Jun 16
First Quarter

Hourly Weather History & Observations

Time (CDT) Temp. Dew Point Humidity Pressure Visibility Wind Dir Wind Speed Gust Speed Precip Events Conditions
12:05 AM 62.6 °F 60.8 °F 94% 29.57 in 1.0 mi NE 9.2 mph - N/A   Mist
12:37 AM 57.2 °F 57.2 °F 100% 29.58 in 3.0 mi East 10.4 mph - N/A   Overcast
12:53 AM 57.9 °F 57.9 °F 100% 29.60 in 4.0 mi ENE 9.2 mph - N/A   Overcast
1:53 AM 55.9 °F 55.0 °F 97% 29.56 in 2.5 mi ENE 8.1 mph - N/A   Overcast
2:11 AM 55.4 °F 55.4 °F 100% 29.54 in 3.0 mi ENE 9.2 mph 18.4 mph N/A   Overcast
2:32 AM 55.4 °F 53.6 °F 94% 29.54 in 2.5 mi East 8.1 mph 17.3 mph N/A   Overcast
2:53 AM 53.6 °F 53.6 °F 100% 29.54 in 2.0 mi East 8.1 mph - N/A   Overcast
3:48 AM 53.6 °F 53.6 °F 100% 29.53 in 1.5 mi ENE 10.4 mph - N/A   Overcast
3:53 AM 54.0 °F 54.0 °F 100% 29.55 in 1.8 mi East 9.2 mph - N/A   Overcast
4:03 AM 53.6 °F 53.6 °F 100% 29.52 in 2.0 mi ENE 8.1 mph - N/A   Overcast
4:53 AM 55.0 °F 54.0 °F 96% 29.52 in 6.0 mi East 6.9 mph - N/A   Overcast
5:35 AM 55.4 °F 53.6 °F 94% 29.50 in 6.0 mi ENE 9.2 mph - 0.01 in Rain Light Rain
5:48 AM 55.4 °F 53.6 °F 94% 29.51 in 6.0 mi East 6.9 mph - 0.01 in Rain Light Rain
5:53 AM 55.0 °F 54.0 °F 96% 29.53 in 5.0 mi ENE 8.1 mph - 0.02 in Rain Light Rain
6:28 AM 55.4 °F 53.6 °F 94% 29.51 in 1.8 mi East 8.1 mph - 0.02 in Rain Rain
6:42 AM 55.4 °F 55.4 °F 100% 29.51 in 2.5 mi East 8.1 mph - 0.06 in Rain Light Rain
6:47 AM 55.4 °F 55.4 °F 100% 29.52 in 3.0 mi ENE 8.1 mph - 0.06 in Rain Light Rain
6:53 AM 55.0 °F 55.0 °F 100% 29.54 in 2.5 mi East 9.2 mph - 0.06 in Rain Light Rain
7:00 AM 55.4 °F 55.4 °F 100% 29.52 in 1.8 mi East 9.2 mph - 0.01 in Rain Light Rain
7:08 AM 55.4 °F 55.4 °F 100% 29.52 in 2.5 mi East 5.8 mph - 0.03 in Rain Light Rain
7:22 AM 55.4 °F 53.6 °F 94% 29.52 in 5.0 mi East 6.9 mph - 0.04 in Rain Light Rain
7:53 AM 54.0 °F 54.0 °F 100% 29.54 in 4.0 mi ENE 8.1 mph - 0.04 in Rain Light Rain
8:53 AM 55.0 °F 54.0 °F 96% 29.54 in 10.0 mi ENE 8.1 mph - 0.00 in   Overcast
9:14 AM 55.4 °F 55.4 °F 100% 29.51 in 2.0 mi ENE 8.1 mph - 0.00 in Rain Light Rain
9:46 AM 55.4 °F 55.4 °F 100% 29.50 in 7.0 mi East 4.6 mph - 0.01 in   Overcast
9:53 AM 57.0 °F 57.0 °F 100% 29.53 in 7.0 mi East 4.6 mph - 0.01 in   Overcast
10:18 AM 60.8 °F 59.0 °F 94% 29.51 in 8.0 mi SSE 10.4 mph - N/A   Overcast
10:53 AM 66.0 °F 60.1 °F 81% 29.52 in 10.0 mi South 12.7 mph - N/A   Mostly Cloudy
11:53 AM 69.1 °F 57.9 °F 68% 29.51 in 10.0 mi South 16.1 mph 21.9 mph N/A   Mostly Cloudy
12:07 PM 69.8 °F 57.2 °F 64% 29.50 in 10.0 mi South 12.7 mph 21.9 mph N/A   Mostly Cloudy
12:53 PM 69.8 °F 57.2 °F 64% 29.49 in 10.0 mi SSE 19.6 mph 26.5 mph N/A   Mostly Cloudy
1:53 PM 64.9 °F 61.0 °F 87% 29.52 in 10.0 mi SSE 15.0 mph - 0.01 in   Overcast
2:53 PM 66.0 °F 59.0 °F 78% 29.52 in 10.0 mi South 11.5 mph - 0.00 in   Mostly Cloudy
3:28 PM 66.2 °F 59.0 °F 78% 29.50 in 7.0 mi South 17.3 mph 25.3 mph 0.00 in Rain Light Rain
3:37 PM 66.2 °F 60.8 °F 83% 29.50 in 9.0 mi South 17.3 mph 25.3 mph 0.00 in Rain Light Rain
3:53 PM 69.1 °F 59.0 °F 70% 29.52 in 10.0 mi South 18.4 mph - 0.00 in   Scattered Clouds
4:53 PM 66.0 °F 55.9 °F 70% 29.54 in 10.0 mi SSW 15.0 mph - N/A   Overcast
5:53 PM 66.9 °F 55.0 °F 66% 29.55 in 10.0 mi South 16.1 mph - N/A   Mostly Cloudy
6:53 PM 66.9 °F 55.9 °F 68% 29.57 in 10.0 mi South 10.4 mph - N/A   Overcast
7:53 PM 64.9 °F 57.0 °F 75% 29.57 in 10.0 mi SE 6.9 mph - N/A   Overcast
8:53 PM 64.4 °F 53.6 °F 68% 29.56 in 9.0 mi SW 10.4 mph - N/A Rain Light Rain
9:53 PM 59.0 °F 57.0 °F 93% 29.59 in 8.0 mi East 4.6 mph - 0.11 in Rain Light Rain
10:32 PM 57.2 °F 55.4 °F 94% 29.57 in 9.0 mi ENE 9.2 mph - 0.00 in   Overcast
10:41 PM 55.4 °F 53.6 °F 94% 29.58 in 5.0 mi East 8.1 mph - 0.00 in Rain Rain
10:53 PM 54.0 °F 53.1 °F 97% 29.59 in 5.0 mi NNE 6.9 mph - 0.02 in Rain Light Rain
11:00 PM 53.6 °F 53.6 °F 100% 29.57 in 7.0 mi NNE 8.1 mph - 0.01 in Rain Light Rain
11:11 PM 53.6 °F 51.8 °F 94% 29.57 in 1.8 mi ENE 10.4 mph - 0.11 in Rain Heavy Rain
11:27 PM 51.8 °F 51.8 °F 100% 29.56 in 1.8 mi ENE 9.2 mph 17.3 mph 0.34 in Rain Heavy Rain
11:31 PM 51.8 °F 51.8 °F 100% 29.56 in 2.0 mi ENE 10.4 mph 17.3 mph 0.38 in Rain Rain
11:43 PM 51.8 °F 50.0 °F 94% 29.56 in 3.0 mi ENE 10.4 mph - 0.42 in Rain Rain
11:53 PM 51.1 °F 50.0 °F 96% 29.57 in 5.0 mi ENE 11.5 mph 18.4 mph 0.44 in Rain Light Rain